Total_Precipitation_Accumulation
1.58 1.73 1.51 1.09 0.93 0.82 0.72 0.62 0.54 0.39 0.33 0.44 0.41 0.28 0.22 0.24 0.31 0.35 0.36 0.40 0.44 0.43 0.43 0.51 0.61 0.74 0.88 0.98 1.07 1.13 1.21 1.32 1.52 1.64 1.66 1.63 1.74 1.77 1.80 1.79 1.69 1.57 1.46 1.35
1.63 1.33 0.75 0.56 0.61 0.74 0.82 0.78 0.58 0.43 0.37 0.46 0.41 0.29 0.22 0.22 0.29 0.32 0.36 0.39 0.43 0.45 0.50 0.55 0.69 0.83 0.89 0.91 1.02 1.13 1.16 1.24 1.32 1.37 1.43 1.48 1.52 1.59 1.66 1.73 1.77 1.75 1.64 1.48
1.15 0.77 0.48 0.61 0.73 0.89 0.87 0.76 0.60 0.54 0.53 0.58 0.56 0.49 0.28 0.25 0.28 0.29 0.35 0.37 0.39 0.44 0.45 0.47 0.60 0.83 0.93 0.91 0.98 1.07 1.13 1.18 1.30 1.42 1.52 1.58 1.70 1.75 1.68 1.63 1.66 1.71 1.68 1.57
0.80 0.52 0.57 0.74 0.76 0.82 0.89 0.57 0.56 0.60 0.84 1.03 0.83 0.91 0.41 0.29 0.32 0.30 0.34 0.39 0.38 0.42 0.44 0.44 0.52 0.74 0.92 0.90 1.01 1.13 1.20 1.28 1.35 1.50 1.53 1.44 1.40 1.47 1.41 1.41 1.41 1.53 1.67 1.64
0.87 0.59 0.68 0.79 0.63 0.62 0.66 0.54 0.65 0.76 0.97 1.14 0.87 0.93 0.50 0.30 0.39 0.37 0.38 0.43 0.41 0.42 0.45 0.44 0.47 0.65 0.87 0.95 1.02 1.19 1.26 1.35 1.44 1.48 1.53 1.43 1.32 1.29 1.36 1.48 1.55 1.51 1.54 1.64
0.69 0.56 0.67 0.60 0.49 0.54 0.64 0.85 1.10 1.21 1.61 1.77 0.82 0.75 0.60 0.46 0.48 0.43 0.42 0.45 0.46 0.44 0.46 0.50 0.52 0.64 0.79 0.91 1.02 1.13 1.30 1.35 1.49 1.50 1.52 1.40 1.28 1.22 1.27 1.35 1.54 1.61 1.60 1.62
1.01 0.75 0.71 0.63 0.78 0.90 1.07 1.59 2.47 2.76 2.72 1.67 0.49 0.52 0.61 0.48 0.46 0.47 0.47 0.45 0.45 0.46 0.50 0.51 0.52 0.60 0.69 0.82 0.95 1.06 1.20 1.39 1.48 1.51 1.46 1.37 1.26 1.18 1.17 1.20 1.32 1.43 1.51 1.58
1.19 1.04 0.76 0.74 0.94 1.18 1.14 1.30 1.78 1.91 1.45 0.72 0.39 0.48 0.49 0.41 0.36 0.37 0.38 0.40 0.39 0.44 0.55 0.54 0.50 0.56 0.64 0.76 0.88 1.02 1.12 1.33 1.48 1.49 1.47 1.43 1.30 1.20 1.15 1.16 1.18 1.24 1.22 1.29
1.17 0.92 0.59 0.56 0.57 0.76 1.05 1.06 0.88 1.14 0.84 0.57 0.51 0.41 0.36 0.30 0.28 0.32 0.37 0.43 0.44 0.47 0.56 0.58 0.52 0.56 0.62 0.74 0.84 0.95 1.07 1.22 1.42 1.53 1.56 1.52 1.39 1.27 1.18 1.15 1.15 1.21 1.17 1.10
1.30 1.09 0.65 0.62 0.71 0.84 0.93 1.00 1.17 1.59 1.33 0.79 0.47 0.35 0.42 0.39 0.35 0.34 0.38 0.44 0.42 0.41 0.48 0.52 0.49 0.52 0.61 0.72 0.82 0.90 1.02 1.13 1.28 1.40 1.51 1.55 1.52 1.38 1.30 1.26 1.19 1.14 1.16 1.16
1.23 1.29 0.95 0.89 1.08 1.08 1.00 1.25 1.50 1.51 1.17 0.96 0.64 0.48 0.45 0.39 0.33 0.32 0.33 0.39 0.40 0.40 0.45 0.46 0.45 0.49 0.57 0.71 0.81 0.86 0.94 1.08 1.22 1.29 1.34 1.45 1.57 1.43 1.36 1.35 1.28 1.18 1.12 1.16
1.25 1.47 1.19 0.89 0.75 0.71 0.88 1.08 1.25 1.50 1.16 0.72 0.70 0.57 0.37 0.28 0.27 0.26 0.28 0.34 0.40 0.40 0.43 0.42 0.43 0.48 0.52 0.62 0.76 0.84 0.91 0.96 1.11 1.23 1.27 1.34 1.49 1.49 1.38 1.37 1.35 1.23 1.14 1.12
1.60 1.88 1.73 1.46 1.23 1.03 1.09 1.00 1.02 1.09 1.10 0.83 0.73 0.55 0.33 0.25 0.23 0.23 0.24 0.28 0.36 0.38 0.41 0.40 0.43 0.50 0.53 0.58 0.69 0.80 0.89 0.90 0.98 1.15 1.20 1.29 1.39 1.45 1.40 1.35 1.39 1.35 1.30 1.31
1.85 1.94 1.45 1.37 1.22 1.12 1.09 0.86 0.83 1.11 1.33 0.88 0.58 0.46 0.35 0.31 0.29 0.29 0.27 0.28 0.34 0.38 0.40 0.40 0.43 0.50 0.55 0.59 0.65 0.73 0.79 0.87 0.94 1.10 1.21 1.22 1.29 1.33 1.35 1.38 1.37 1.46 1.51 1.56
1.76 1.70 0.80 0.51 0.47 0.56 0.66 0.61 0.64 0.81 0.82 0.72 0.46 0.41 0.47 0.43 0.39 0.37 0.35 0.33 0.34 0.38 0.39 0.39 0.44 0.50 0.53 0.58 0.62 0.64 0.70 0.77 0.86 1.02 1.13 1.17 1.22 1.35 1.43 1.47 1.50 1.50 1.60 1.65
1.60 1.54 0.79 0.48 0.33 0.39 0.49 0.43 0.45 0.47 0.45 0.48 0.40 0.45 0.47 0.42 0.36 0.35 0.37 0.36 0.37 0.40 0.40 0.41 0.46 0.50 0.53 0.55 0.58 0.57 0.61 0.70 0.81 0.96 1.03 1.08 1.20 1.32 1.47 1.50 1.57 1.60 1.62 1.66
1.38 1.34 1.18 0.79 0.39 0.58 0.73 0.51 0.45 0.44 0.42 0.43 0.50 0.53 0.47 0.43 0.39 0.39 0.39 0.40 0.41 0.40 0.38 0.39 0.47 0.52 0.55 0.56 0.54 0.55 0.58 0.62 0.70 0.84 0.94 1.01 1.15 1.23 1.33 1.37 1.39 1.45 1.41 1.38
1.11 1.22 1.50 1.12 0.84 1.18 0.67 0.39 0.38 0.40 0.43 0.43 0.46 0.48 0.47 0.50 0.47 0.42 0.41 0.42 0.44 0.42 0.40 0.38 0.44 0.48 0.49 0.53 0.56 0.56 0.56 0.60 0.69 0.76 0.86 0.89 1.01 1.13 1.17 1.23 1.26 1.28 1.23 1.21
0.69 1.16 1.71 1.46 1.12 0.70 0.36 0.29 0.40 0.47 0.54 0.46 0.41 0.40 0.40 0.42 0.44 0.47 0.45 0.41 0.43 0.42 0.40 0.38 0.41 0.44 0.45 0.50 0.54 0.56 0.57 0.59 0.64 0.71 0.77 0.80 0.88 1.05 1.06 1.12 1.20 1.17 1.20 1.19
0.69 1.13 1.82 1.58 1.22 0.67 0.37 0.23 0.28 0.43 0.64 0.42 0.36 0.40 0.42 0.43 0.61 0.61 0.53 0.46 0.43 0.40 0.37 0.38 0.41 0.41 0.45 0.48 0.48 0.50 0.53 0.55 0.60 0.67 0.74 0.75 0.80 0.91 0.92 0.96 1.04 1.06 1.06 1.11
1.04 1.50 1.69 1.29 1.03 0.51 0.31 0.23 0.28 0.69 0.81 0.41 0.37 0.41 0.44 0.53 0.64 0.59 0.54 0.50 0.45 0.44 0.42 0.40 0.41 0.44 0.47 0.49 0.50 0.51 0.50 0.51 0.56 0.62 0.67 0.72 0.77 0.83 0.84 0.86 0.91 0.97 1.01 1.05
0.73 1.01 1.02 0.96 1.06 0.61 0.30 0.32 0.56 0.69 0.42 0.35 0.36 0.38 0.42 0.42 0.40 0.42 0.46 0.46 0.43 0.46 0.46 0.43 0.44 0.47 0.48 0.48 0.48 0.47 0.51 0.50 0.52 0.59 0.67 0.72 0.75 0.78 0.79 0.82 0.88 0.91 0.99 1.11
0.52 0.66 0.72 0.72 0.67 0.48 0.37 0.44 0.47 0.38 0.33 0.30 0.33 0.36 0.37 0.37 0.37 0.40 0.40 0.41 0.42 0.44 0.44 0.43 0.45 0.49 0.50 0.50 0.48 0.46 0.50 0.50 0.52 0.58 0.64 0.71 0.76 0.75 0.80 0.84 0.90 0.95 1.03 1.13
0.41 0.38 0.48 0.46 0.37 0.31 0.31 0.32 0.32 0.30 0.30 0.29 0.30 0.34 0.34 0.36 0.35 0.37 0.36 0.39 0.41 0.41 0.40 0.40 0.42 0.47 0.50 0.50 0.50 0.50 0.51 0.52 0.55 0.59 0.61 0.66 0.76 0.80 0.81 0.85 0.90 0.92 0.97 1.12
0.36 0.36 0.44 0.41 0.29 0.25 0.24 0.24 0.28 0.28 0.25 0.23 0.25 0.28 0.31 0.31 0.32 0.33 0.37 0.39 0.41 0.41 0.39 0.38 0.41 0.44 0.49 0.50 0.50 0.51 0.55 0.59 0.61 0.60 0.60 0.63 0.72 0.79 0.80 0.83 0.87 0.92 0.92 1.13
0.28 0.34 0.43 0.39 0.26 0.29 0.26 0.21 0.21 0.24 0.24 0.22 0.25 0.28 0.27 0.27 0.31 0.32 0.34 0.37 0.37 0.38 0.39 0.38 0.37 0.42 0.45 0.47 0.50 0.53 0.60 0.65 0.67 0.66 0.65 0.67 0.73 0.75 0.77 0.80 0.86 0.97 0.99 1.06